This is the latest recevied weather packets stored in our database for station/object OH7GGX-14. If no packets are shown the sender has not sent any weather packets the latest 10 day(s).
| Time | Temp. | Humidity | Pressure | Rain* | Wind** | Luminosity | Snow |
|---|---|---|---|---|---|---|---|
| 1787741824 | 18.89° C | 75% | 1024.7 hPa | 0 mm | - | - | - |
| 1787741224 | 18.89° C | 79% | 1024.6 hPa | 0 mm | - | - | - |
| 1787740624 | 18.89° C | 80% | 1024.6 hPa | 0 mm | - | - | - |
| 1787740024 | 18.33° C | 81% | 1024.4 hPa | 0 mm | - | - | - |
| 1787739424 | 18.33° C | 83% | 1024.4 hPa | 0 mm | - | - | - |
| 1787738824 | 18.33° C | 83% | 1024.5 hPa | 0 mm | - | - | - |
| 1787738224 | 18.33° C | 80% | 1024.5 hPa | 0 mm | - | - | - |
| 1787737624 | 18.33° C | 85% | 1024.3 hPa | 0 mm | - | - | - |
| 1787737024 | 17.78° C | 85% | 1024.3 hPa | 0 mm | - | - | - |
| 1787736424 | 17.78° C | 89% | 1024.3 hPa | 0 mm | - | - | - |
| 1787735824 | 17.22° C | 94% | 1024.2 hPa | 0 mm | - | - | - |
| 1787735224 | 17.22° C | 99% | 1024.2 hPa | 0 mm | - | - | - |
| 1787734624 | 17.22° C | 99% | 1024.1 hPa | 0 mm | - | - | - |
| 1787734024 | 16.67° C | 99% | 1024.1 hPa | 0 mm | - | - | - |
| 1787733424 | 16.67° C | 99% | 1024.1 hPa | 0 mm | - | - | - |
| 1787732824 | 16.11° C | 99% | 1024.1 hPa | 0 mm | - | - | - |
| 1787732224 | 15.56° C | 99% | 1024.1 hPa | 0 mm | - | - | - |
| 1787731624 | 15.56° C | 99% | 1024.1 hPa | 0 mm | - | - | - |
| 1787731024 | 15° C | 99% | 1024 hPa | 0 mm | - | - | - |
| 1787730424 | 15° C | 99% | 1024.1 hPa | 0 mm | - | - | - |
| 1787729824 | 14.44° C | 99% | 1024 hPa | 0 mm | - | - | - |
| 1787729224 | 13.89° C | 99% | 1023.9 hPa | 0 mm | - | - | - |
| 1787728624 | 13.89° C | 99% | 1024 hPa | 0 mm | - | - | - |
| 1787728024 | 13.33° C | 99% | 1023.9 hPa | 0 mm | - | - | - |
| 1787727424 | 13.33° C | 99% | 1023.8 hPa | 0 mm | - | - | - |
* Rain latest hour (hover to see other rain measurements)
** Current wind speed in m/s (hover to see current wind gust speed)